Regional Weather Roundup
Issued by NWS Little Rock, AR

Home | Current Version | Previous Version | Text Only | Print | Product List | Glossary Off
Versions: 1 2 3 4 5 6 7 8 9 10 11 12 13 14 15 16 17 18 19 20 21 22 23 24 25 26 27 28 29 30 31 32 33 34 35 36 37 38 39 40 41 42 43 44 45 46 47 48 49 50

000
ASUS44 KLZK 191212
RWRLZK

WEATHER ROUNDUP FOR ARKANSAS
NATIONAL WEATHER SERVICE LITTLE ROCK AR
700 AM CDT THU OCT 19 2017

NOTE: "FAIR" INDICATES FEW OR NO CLOUDS BELOW 12,000 FEET WITH NO
SIGNIFICANT WEATHER AND/OR OBSTRUCTIONS TO VISIBILITY.

ARZ001-003-010-029-191300-
NORTHWEST ARKANSAS

CITY           SKY/WX    TMP DP  RH WIND       PRES   REMARKS
FAYETTEVILLE   CLOUDY    45  45 100 CALM      30.19R
6HR MIN TEMP:  43; 6HR MAX TEMP:  59;

FORT SMITH     CLEAR     53  51  93 NE3       30.18R
6HR MIN TEMP:  53; 6HR MAX TEMP:  57;

HARRISON       CLEAR     50  48  93 CALM      30.20R
6HR MIN TEMP:  47; 6HR MAX TEMP:  63;

BENTONVILLE    CLEAR     50  46  86 CALM      30.20R
6HR MIN TEMP:  47; 6HR MAX TEMP:  56;

ROGERS         CLEAR     49  47  93 SE3       30.19R
6HR MIN TEMP:  47; 6HR MAX TEMP:  55;

SILOAM SPGS    CLOUDY    51  47  86 SE3       30.18R
6HR MIN TEMP:  46; 6HR MAX TEMP:  57;

HIGHFILL       PTCLDY    49  46  90 CALM      30.18R
6HR MIN TEMP:  47; 6HR MAX TEMP:  56;

SPRINGDALE     CLEAR     48  48 100 CALM      30.20R
$$

ARZ004-005-016-191300-
NORTH CENTRAL ARKANSAS

CITY           SKY/WX    TMP DP  RH WIND       PRES   REMARKS
BATESVILLE     CLEAR     53  47  79 SE3       30.22R
6HR MIN TEMP:  52; 6HR MAX TEMP:  62;

FLIPPIN        CLEAR     45  44  97 CALM      30.20R
6HR MIN TEMP:  45; 6HR MAX TEMP:  55;

MTN HOME       CLEAR     49  49 100 CALM      30.19R
6HR MIN TEMP:  48; 6HR MAX TEMP:  57;

$$

ARZ040-041-191300-
WEST CENTRAL ARKANSAS

CITY           SKY/WX    TMP DP  RH WIND       PRES   REMARKS
MENA           CLOUDY    52  50  93 CALM      30.20S
$$

ARZ009-017-025-026-028-191300-
NORTHEAST ARKANSAS

CITY           SKY/WX    TMP DP  RH WIND       PRES   REMARKS
CORNING        FAIR      46  46 100 CALM      30.23R
JONESBORO      CLEAR     49  47  93 CALM      30.22R
6HR MIN TEMP:  47; 6HR MAX TEMP:  55;

NEWPORT        CLOUDY    46  45  96 S8        30.22R
6HR MIN TEMP:  46; 6HR MAX TEMP:  52; 6HR PCP: TRACE;

WALNUT RIDGE   CLEAR     49  45  86 CALM      30.22R
6HR MIN TEMP:  47; 6HR MAX TEMP:  55;

BLYTHEVILLE    CLEAR     51  47  86 S6        30.23R
6HR MIN TEMP:  51; 6HR MAX TEMP:  56;

$$

ARZ022-023-033-042-044-191300-
CENTRAL ARKANSAS

CITY           SKY/WX    TMP DP  RH WIND       PRES   REMARKS
LITTLE ROCK    MOCLDY    49  49 100 CALM      30.21S
6HR MIN TEMP:  47; 6HR MAX TEMP:  55;

N LITTLE ROCK    N/A     53  48  84 CALM      30.22R
6HR MIN TEMP:  53; 6HR MAX TEMP:  62;

JACKSONVILLE   CLEAR     43  42  98 E3        30.21R
6HR MIN TEMP:  42; 6HR MAX TEMP:  48;

SEARCY         CLOUDY    44  44 100 CALM      30.22S
6HR MIN TEMP:  43; 6HR MAX TEMP:  49;

HOT SPRINGS    CLOUDY    50  49  96 CALM      30.20S
6HR MIN TEMP:  49; 6HR MAX TEMP:  58;

RUSSELLVILLE   CLEAR     47  47 100 CALM      30.19R
6HR MIN TEMP:  47; 6HR MAX TEMP:  54;

CLINTON        FAIR      43  41  93 CALM      30.22R
$$

ARZ036-191300-
EAST ARKANSAS

CITY           SKY/WX    TMP DP  RH WIND       PRES   REMARKS
WEST MEMPHIS   PTCLDY    51  49  92 S3        30.22S
6HR MIN TEMP:  48; 6HR MAX TEMP:  52;

$$

ARZ050-053-066-070-073-191300-
SOUTHWEST ARKANSAS

CITY           SKY/WX    TMP DP  RH WIND       PRES   REMARKS
ARKADELPHIA    FAIR      43  41  93 CALM      30.21S
6HR MIN TEMP:  42; 6HR MAX TEMP:  48;

CAMDEN         CLEAR     43  41  93 CALM      30.20S
TEXARKANA      PTCLDY    50  50 100 CALM      30.19R
6HR MIN TEMP:  49; 6HR MAX TEMP:  60;

EL DORADO      CLEAR     45  45 100 CALM      30.20R
6HR MIN TEMP:  44; 6HR MAX TEMP:  49;

DE QUEEN       FOG       45  45 100 CALM      30.18S VSB 1/4
6HR MIN TEMP:  44; 6HR MAX TEMP:  50;

$$

ARZ056-057-069-191300-
SOUTHEAST ARKANSAS

CITY           SKY/WX    TMP DP  RH WIND       PRES   REMARKS
PINE BLUFF     CLOUDY    45  44  97 CALM      30.21S
6HR MIN TEMP:  44; 6HR MAX TEMP:  50;

STUTTGART      CLEAR     48  47  96 CALM      30.22R
6HR MIN TEMP:  47; 6HR MAX TEMP:  56; 6HR PCP: TRACE;

MONTICELLO     CLOUDY    47  44  90 CALM      30.21S
6HR MIN TEMP:  45; 6HR MAX TEMP:  58;


$$





USA.gov is the U.S. government's official web portal to all federal, state and local government web resources and services.